{"data":{"norad_id":56111,"intl_designator":"2023-046U","name":"STARLINK-6084","alt_names":[],"object_type":"PAYLOAD","status":"ACTIVE","operator":null,"country":"US","launch_date":"2023-03-29","launch_site_code":"AFETR","launch_vehicle":null,"mission":null,"orbit_class":"UNKNOWN","rcs_meters":null,"size_class":null,"mass_kg":null,"dimensions":null,"purposes":["comms"],"wikipedia_slug":null,"has_3d_model":false,"image_url":null,"decayed_at":null,"tle_current":{"epoch":"2026-05-25T02:39:40.183200Z","epoch_age_seconds":72445,"freshness":"FRESH","line1":"1 56111U 23046U   26145.11088175 -.00000222  00000+0  14761-5 0  9998","line2":"2 56111  43.0056  90.4239 0001664 270.5239  89.5422 15.27573539173712","mean_motion":15.27573539,"eccentricity":0.0001664,"inclination_deg":43.0056,"raan_deg":90.4239,"arg_perigee_deg":270.5239,"mean_anomaly_deg":89.5422,"bstar":1.4761e-6,"rev_number":17371,"period_min":94.267147422747,"perigee_km":481.92673808052,"apogee_km":484.21014725183,"semimajor_km":6861.2054426662,"source":"CELESTRAK","updated_at":"2026-05-25T13:38:17.956505Z"}}}